sat.trackr.live / text

‹ back to catalog

STARLINK-33850

NORAD 63679 · 2025-085R

PAYLOAD ACTIVE UNKNOWN

§ Identity

Operator
Country
US
Launch date
2025-04-28
Launch site
AFETR
Launch vehicle
Mass (kg)
RCS (m²)

Purposes: comms

External: N2YO · Heavens-Above · Gunter

§ Orbital elements

Epoch: 2026-05-24T22:50:10.184928Z

Period
94.27 min
Inclination
43.0015°
Eccentricity
0.0001747
Mean motion
15.27594319 rev/d
Perigee alt
481.8 km
Apogee alt
484.2 km
Semi-major
6,861.1 km
B*
4.7211e-4
RAAN
320.1912°
Arg perigee
265.7387°
Mean anomaly
94.3265°
Rev number
6,052

§ Raw data

STARLINK-338501 63679U 25085R   26144.95150677  .00012757  00000+0  47211-3 0  99972 63679  43.0015 320.1912 0001747 265.7387  94.3265 15.27594319 60529

JSON: /api/v1/satellites/63679 · /tle

For live sub-satellite position, see the globe view (requires WebGL).

§ Visibility from observer

Set your observer location to see the next 7 days of passes ≥ 10°. The values pass through the URL so the page stays shareable.

No JS? Fill the form by hand. The geolocation button needs JavaScript.